Location: Tehachapi Municipal Airport
(35.1300°N, 118.4400°W)
Time: 10:37:56
(UTC-07:00)

Daily predictions for brighter satellites

Satellite Brightness Start Highest point End
(mag) Time Altitude Azimuth Time Altitude Azimuth Time Altitude Azimuth
FENGYUN 3A 4.0 19:05:04 10° SE 19:10:08 46° ENE 19:15:14 10° N
Cosmos 1656 Rocket 4.4 19:05:07 10° N 19:10:08 32° ENE 19:15:04 10° SE
NOAA 12 4.2 19:06:58 10° SSE 19:12:04 57° ENE 19:17:13 10° N
DMSP B5D1-3 4.5 19:08:39 10° NNE 19:13:45 72° ESE 19:18:50 10° S
METEOR-M 4.2 19:08:27 10° SSE 19:13:48 88° ENE 19:19:11 10° NNW
EXPRESS MD2 4.2 19:11:49 10° WNW 19:14:14 35° SW 19:18:05 10° SSE
ISS -2.3 19:14:40 10° S 19:17:07 20° SE 19:19:35 10° E
Cosmos 482 Debris 3.8 19:14:19 10° NW 19:18:29 64° NE 19:21:01 10° ESE
SPOT 3 Rocket 3.7 19:13:28 10° SSE 19:18:36 84° WSW 19:23:47 10° NNW
Cosmos 1766 4.3 19:16:32 10° SE 19:19:43 24° E 19:22:52 10° NE
Cosmos 1825 Rocket 3.7 19:15:36 10° N 19:20:02 86° W 19:24:29 10° S
Cosmos 304 Rocket 3.8 19:15:44 10° S 19:20:26 61° ESE 19:25:10 10° NNE
Cosmos 1707 2.8 19:17:38 10° N 19:21:30 54° E 19:25:20 10° SSE
Meteor 2-13 Rocket 4.4 19:15:43 10° S 19:21:43 65° E 19:27:44 10° NNE
Cosmos 1814 Rocket 4.3 19:16:35 10° SSW 19:21:44 72° WNW 19:26:52 10° NNE
Cosmos 1544 4.4 19:19:21 10° SE 19:21:59 19° E 19:24:37 10° NE
OAO 3 Copernicus 4.3 19:17:14 10° W 19:22:18 84° S 19:27:10 11° E
Cosmos 1898 Rocket 3.7 19:18:34 10° NNW 19:23:44 77° WSW 19:28:53 10° S
COSMOS 2406 3.5 19:18:50 10° S 19:24:13 45° ESE 19:29:39 10° NE
Meteor 2-5 Rocket 3.9 19:20:13 10° N 19:25:57 56° E 19:31:32 10° SSE
Cosmos 990 Rocket 3.9 19:21:15 10° NNW 19:26:25 69° ENE 19:31:30 10° SSE
Cosmos 2369 Rocket 3.6 19:21:22 10° NW 19:26:37 41° WSW 19:31:49 10° S
Cosmos 1378 3.1 19:24:48 10° N 19:28:32 60° E 19:32:15 10° SSE
USA 234 3.6 19:23:31 10° SE 19:30:01 70° SW 19:36:35 10° NW
SL-08 ROCKET BODY 4.3 19:25:36 10° S 19:31:26 76° E 19:37:22 10° N
FengYun 1-2 T 4.4 19:31:13 10° SE 19:36:36 50° ENE 19:41:57 10° N
ALOS 2.3 19:34:47 10° SSE 19:39:26 85° W 19:44:08 10° NNW
BREEZE M DEB (TANK) 4.2 19:32:55 10° NW 19:39:38 32° NNE 19:41:48 16° ENE
Envisat 4.4 19:38:12 15° E 19:40:03 18° ENE 19:43:24 10° NNE
Geosat 4.0 19:35:20 10° SE 19:40:16 63° ENE 19:45:15 10° NNW
FREGAT/IRIS 2.5 19:42:36 10° SSE 19:45:37 71° ENE 19:48:37 10° N
USA 81 4.1 19:45:06 10° N 19:50:24 84° W 19:55:41 10° S
Cosmos 2150 Rocket 4.4 19:45:59 10° NNW 19:51:19 68° WSW 19:56:41 10° S
Cosmos 1805 3.8 19:49:24 10° SSE 19:52:56 34° E 19:56:29 10° NNE
Cosmos 1340 Rocket 4.5 19:50:15 10° NNW 19:54:02 38° W 19:57:48 10° SSW
Cosmos 841 Rocket 4.4 19:52:04 10° SSW 19:57:04 52° WNW 20:02:05 10° N
SL-27 R/B 3.2 19:54:38 10° SSE 19:57:50 31° E 19:57:54 31° E
CZ-2D R/B 3.8 19:58:42 29° ESE 19:59:48 36° ENE 20:03:19 10° N
Cosmos 1900 4.5 19:58:02 10° S 20:02:56 53° ESE 20:07:56 10° NE
ATLAS 2AS CENTAUR R/B 4.5 19:58:57 10° N 20:04:03 18° NE 20:07:04 14° ENE
HJ-1C 3.2 20:02:59 14° SSE 20:05:45 82° ENE 20:09:06 10° N
Resurs 1-3 4.2 20:05:33 31° E 20:06:22 34° ENE 20:10:20 10° N
Milstar 3 Cent rocket 2.9 20:04:50 10° SW 20:09:37 31° S 20:11:01 26° SE
Cosmos 540 Rocket 3.5 20:08:18 10° SSW 20:13:24 77° WNW 20:18:32 10° NNE
NOSS 3-1 (A) 4.1 20:06:40 10° NNW 20:14:30 76° ENE 20:20:55 20° SE
Cosmos 2154 Rocket 4.0 20:08:50 10° S 20:14:54 60° E 20:21:03 10° NNE
Cosmos 2074 Rocket 4.4 20:10:53 10° SSW 20:17:01 65° W 20:23:12 10° N
Cosmos 1943 Rocket 4.5 20:15:07 10° NW 20:19:29 24° WSW 20:23:52 10° SSW
SJ-6B 3.5 20:18:26 10° S 20:22:23 55° W 20:26:16 10° NNW
NOSS 3-1 (C) 4.3 20:15:11 10° NW 20:23:01 75° WSW 20:31:09 12° SSE
Yuri Rocket 3.9 20:19:14 10° WSW 20:23:20 32° S 20:23:42 32° SSE
Cosmos 1953 4.0 20:28:52 22° NNE 20:28:52 22° NNE 20:30:28 10° NNE
Meteor 1-24 Rocket 4.1 20:21:11 10° NNW 20:27:05 68° W 20:32:45 10° S
Cosmos 2341 Rocket 4.0 20:21:13 10° SSE 20:27:12 52° E 20:33:11 10° NNE
Resurs 01 Rocket 1.5 20:29:29 56° SE 20:30:18 72° ENE 20:34:43 10° N
H-2A R/B 4.5 20:30:13 10° SSW 20:33:32 31° W 20:36:54 10° NNW
Cosmos 1812 Rocket 3.8 20:29:21 10° SSW 20:33:45 68° W 20:38:14 10° N
GP-B 3.0 20:32:42 10° N 20:37:10 90° SSE 20:38:34 43° S
BREEZE-M DEB 3.6 20:36:32 10° WNW 20:41:48 39° SW 20:42:00 39° SW
Spot 2 Rocket 3.3 20:45:18 61° SSE 20:46:13 88° ENE 20:51:17 10° NNW
Nadezhda 3 Rocket 3.9 20:43:17 10° N 20:49:36 89° W 20:52:40 33° S
ISS -1.6 20:50:28 10° WSW 20:52:28 26° WNW 20:52:28 26° WNW
Cosmos 292 Rocket 4.1 20:49:50 10° SSW 20:54:39 66° WNW 20:59:29 10° NNE
Cosmos 2285 Rocket 3.9 20:49:09 10° S 20:55:30 69° ESE 21:01:54 10° NNE
ATLAS CENTAUR R/B 3.4 20:48:34 10° NW 20:57:58 45° WSW 20:59:18 36° SSW
Cosmos 1295 Rocket 4.4 21:05:45 38° SSW 21:08:15 81° W 21:14:22 10° N
Cosmos 1809 Rocket 4.4 21:14:58 76° N 21:14:58 76° N 21:20:36 10° N
Envisat 3.8 21:18:25 46° WSW 21:18:40 46° W 21:23:33 10° NNW
ATLAS 2AS CENTAUR R/B 3.5 21:48:40 10° NNW 21:54:31 50° N 21:54:31 50° N
